Location: Paddlesworth
(51.1000°N, 1.1333°E)
Time: 07:29:09
(UTC+00:00)

Resurs 01 Rocket - Pass Details

Date: 11 May 2021
Orbit: 633 x 645 km, 97.9° (Epoch: 15 June)

Event Time Altitude Azimuth Distance (km) Brightness Sun altitude
Exits shadow 21:39:48 - 210° (SSW) 2,824 4.7 -15.0°
Reaches altitude 10° 21:42:20 10° 228° (SW) 2,040 4.1 -15.2°
Maximum altitude 21:45:18 17° 271° (W) 1,608 4.1 -15.4°
Drops below altitude 10° 21:48:17 10° 313° (NW) 2,047 5.4 -15.7°
Sets 21:51:11 0° 333° (NNW) 2,960 6.9 -15.9°
